Tracking 17149 objects as of 22-May-2015
HD Live streaming from Space Station

ALPHASAT (INMARSAT 4A-F4)

Track ALPHASAT (INMARSAT 4A-F4) now!
ALPHASAT (INMARSAT 4A-F4) is classified as:


NORAD ID: 39215
Int'l Code: 2013-038A
Perigee: 35,788.5 km
Apogee: 35,797.0 km
Inclination: 0.8 °
Period: 1,436.0 minutes
Semi major axis: 42163 km
RCS: Unknown
Launch date: July 25, 2013
Source: International Mobile Satellite Organization (INMARSAT) (IM)

INMARSAT-4A F4, with 12 kilowatts of end-of-life power, will operate a contracted 15 years from 25 degrees east to expand the amount of L-band spectrum Inmarsat has at its disposal with its existing fleet.
Your satellite tracking list
Your tracking list is empty





NASA's NSSDC Master Catalog

Two Line Element Set (TLE):
1 39215U 13038A   15141.09302243  .00000122  00000-0  00000+0 0  9994
2 39215 000.8210 034.0996 0001017 009.2105 253.4529 01.00275325  6708

Source of the keplerian elements: AFSPC

N2YO: 356